This demonstration page uses our WeatherBlox Daily Observations layout. Learn more.

38.89511, -77.03637

Hourly Observations for February 28, 2015

Temp ( °F °C ) Dew Point ( °F °C ) Humidity (%) Winds ( mph kmh ) Pressure ( in mb ) Visibility ( mi km ) Precip ( " mm )
12:52 am 00:52 Partly Cloudy 24 -4.4 3 -16.1 40 40 N 9 15 30.7 1040 10 16.0934 0 0
1:52 am 01:52 Mostly Cloudy 23 -5 4 -15.6 44 44 N 7 11 30.71 1040 10 16.0934 0 0
2:52 am 02:52 Mostly Cloudy 22 -5.6 3 -16.1 44 44 N 9 15 30.73 1041 10 16.0934 0 0
3:52 am 03:52 Mostly Clear 22 -5.6 4 -15.6 46 46 N 7 11 30.75 1041 10 16.0934 0 0
4:52 am 04:52 Mostly Clear 21 -6.1 3 -16.1 45 45 N 7 11 30.77 1042 10 16.0934 0 0
5:52 am 05:52 Mostly Clear 20 -6.7 2 -16.7 45 45 N 8 13 30.8 1043 10 16.0934 0 0
6:52 am 06:52 Partly Cloudy 20 -6.7 3 -16.1 48 48 N 7 11 30.81 1043 10 16.0934 0 0
7:52 am 07:52 Mostly Cloudy 22 -5.6 0 -17.8 38 38 NNE 8 13 30.84 1045 10 16.0934 0 0
8:52 am 08:52 Mostly Cloudy 23 -5 0 -17.8 36 36 N 9 15 30.87 1045 10 16.0934 0 0
9:52 am 09:52 Mostly Cloudy 25 -3.9 -1 -18.3 32 32 Calm 30.88 1046 10 16.0934 0 0
10:52 am 10:52 Mostly Cloudy 26 -3.3 1 -17.2 34 34 ENE 3 6 30.87 1046 10 16.0934 0 0
11:52 am 11:52 Mostly Cloudy 28 -2.2 3 -16.1 34 34 ENE 5 7 30.85 1045 10 16.0934 0 0
12:52 pm 12:52 Mostly Cloudy 30 -1.1 5 -15 34 34 ENE 3 6 30.83 1044 10 16.0934 0 0
1:52 pm 13:52 Mostly Cloudy 28 -2 1 -17 31 31 ESE 3 6 30.8 1043 10 16.0934 0 0
2:52 pm 14:52 Mostly Cloudy 31 -0.6 2 -16.7 29 29 SSE 3 6 30.78 1042 10 16.0934 0 0
3:52 pm 15:52 Partly Cloudy 32 0 4 -15.6 30 30 SE 3 6 30.77 1042 10 16.0934 0 0
4:52 pm 16:52 Mostly Sunny 32 0 7 -13.9 35 35 ESE 3 6 30.76 1042 10 16.0934 0 0
5:52 pm 17:52 Mostly Sunny 30 -1.1 4 -15.6 33 33 S 3 6 30.76 1042 10 16.0934 0 0
6:52 pm 18:52 Mostly Clear 31 -0.6 9 -12.8 40 40 S 3 6 30.76 1042 10 16.0934 0 0
7:52 pm 19:52 Mostly Clear 28 -2.2 10 -12.2 47 47 SE 6 9 30.78 1042 10 16.0934 0 0
8:52 pm 20:52 Clear 27 -2.8 8 -13.3 45 45 Calm 30.79 1043 10 16.0934 0 0
9:52 pm 21:52 Clear 26 -3.3 10 -12.2 51 51 SE 3 6 30.79 1043 10 16.0934 0 0
10:52 pm 22:52 Mostly Clear 25 -3.9 9 -12.8 50 50 SSE 5 7 30.76 1042 10 16.0934 0 0
11:52 pm 23:52 Partly Cloudy 25 -3.9 10 -12.2 53 53 SE 5 7 30.74 1041 10 16.0934 0 0

Powered by AerisWeather